,,,PA_Meas_PMT16A,,PR_Meas_QMR101_102,,RH_Meas_QMH101,,SR_Meas_QMS101,,TA_Meas_QMH101,,GenWind,,GenWind,
date,time,status,PA,status,PR,status,RH,status,SR,status,TA,status,DirAvg,status,SpdAvg,
2011-12-26, 00:00:04,VALID,1003.04,VALID,0,VALID,93.0113,VALID,0.0815089,VALID,25.3955,VALID,356,VALID,0.129688,
2011-12-26, 00:01:04,VALID,1003.06,VALID,0,VALID,93.0266,VALID,0,VALID,25.376,VALID,356,VALID,0,
2011-12-26, 00:02:04,VALID,1003.02,VALID,0,VALID,93.08,VALID,0.0815089,VALID,25.3955,VALID,356,VALID,0,
2011-12-26, 00:03:04,VALID,1003,VALID,0,VALID,93.0952,VALID,0,VALID,25.3955,VALID,356,VALID,0,
2011-12-26, 00:04:04,VALID,1002.96,VALID,0,VALID,93.0647,VALID,0,VALID,25.3955,VALID,356,VALID,0.207813,
2011-12-26, 00:05:04,VALID,1002.94,VALID,0,VALID,93.2478,VALID,0,VALID,25.4149,VALID,356,VALID,0.293359,
2011-12-26, 00:06:04,VALID,1002.93,VALID,0,VALID,93.3546,VALID,0.0815089,VALID,25.413,VALID,356,VALID,0.0695312,
2011-12-26, 00:07:04,VALID,1002.93,VALID,0,VALID,93.1563,VALID,0,VALID,25.4149,VALID,356,VALID,0,
2011-12-26, 00:08:04,VALID,1002.92,VALID,0,VALID,93.2783,VALID,0,VALID,25.4363,VALID,356,VALID,0,
2011-12-26, 00:09:04,VALID,1002.91,VALID,0,VALID,93.2249,VALID,0.0815089,VALID,25.4149,VALID,356,VALID,0,
2011-12-26, 00:10:04,VALID,1002.87,VALID,0,VALID,93.2631,VALID,0,VALID,25.3955,VALID,356,VALID,0,
2011-12-26, 00:11:04,VALID,1002.88,VALID,0,VALID,93.408,VALID,0.0815089,VALID,25.4149,VALID,356,VALID,0,
2011-12-26, 00:12:04,VALID,1002.84,VALID,0,VALID,93.4309,VALID,0,VALID,25.4344,VALID,356,VALID,0,
2011-12-26, 00:13:04,VALID,1002.81,VALID,0,VALID,93.4767,VALID,0,VALID,25.4344,VALID,356,VALID,0,
2011-12-26, 00:14:04,VALID,1002.79,VALID,0,VALID,93.3851,VALID,0.0815089,VALID,25.4149,VALID,356,VALID,0.410156,
2011-12-26, 00:15:04,VALID,1002.72,VALID,0,VALID,93.5072,VALID,0,VALID,25.4149,VALID,357,VALID,0.471875,
2011-12-26, 00:16:04,VALID,1002.7,VALID,0,VALID,93.5224,VALID,0.0815089,VALID,25.4149,VALID,357,VALID,0.500391,
2011-12-26, 00:17:04,VALID,1002.69,VALID,0,VALID,93.4843,VALID,0,VALID,25.376,VALID,357,VALID,0.350391,
2011-12-26, 00:18:04,VALID,1002.66,VALID,0,VALID,93.6445,VALID,0.0815089,VALID,25.376,VALID,357,VALID,0.301172,
2011-12-26, 00:19:04,VALID,1002.64,VALID,0,VALID,93.5682,VALID,0,VALID,25.3565,VALID,357,VALID,0.503906,
2011-12-26, 00:20:04,VALID,1002.61,VALID,0,VALID,93.6064,VALID,0,VALID,25.376,VALID,357,VALID,0.567969,
2011-12-26, 00:21:04,VALID,1002.64,VALID,0,VALID,93.614,VALID,0,VALID,25.3779,VALID,357,VALID,0.277344,
2011-12-26, 00:22:04,VALID,1002.61,VALID,0,VALID,93.6369,VALID,0,VALID,25.3565,VALID,357,VALID,0.00429688,
2011-12-26, 00:23:04,VALID,1002.56,VALID,0,VALID,93.6598,VALID,0,VALID,25.3565,VALID,357,VALID,0.173047,
2011-12-26, 00:24:04,VALID,1002.58,VALID,0,VALID,93.6826,VALID,0.0815089,VALID,25.3351,VALID,357,VALID,0.0484375,
2011-12-26, 00:25:04,VALID,1002.53,VALID,0,VALID,93.7818,VALID,0.0815089,VALID,25.3546,VALID,356,VALID,0.411719,
2011-12-26, 00:26:04,VALID,1002.53,VALID,0,VALID,93.7666,VALID,0,VALID,25.3955,VALID,353,VALID,0.38125,
2011-12-26, 00:27:04,VALID,1002.51,VALID,0,VALID,93.7666,VALID,0,VALID,25.413,VALID,353,VALID,0.0679687,
2011-12-26, 00:28:04,VALID,1002.47,VALID,0,VALID,93.7132,VALID,0,VALID,25.4325,VALID,353,VALID,0.478516,
2011-12-26, 00:29:04,VALID,1002.45,VALID,0,VALID,93.5072,VALID,0,VALID,25.4344,VALID,353,VALID,0.170312,
2011-12-26, 00:30:04,VALID,1002.4,VALID,0,VALID,93.3088,VALID,0,VALID,25.4344,VALID,353,VALID,0.412891,
2011-12-26, 00:31:04,VALID,1002.34,VALID,0,VALID,93.1868,VALID,0,VALID,25.4344,VALID,326,VALID,0.219531,
2011-12-26, 00:32:04,VALID,1002.3,VALID,0,VALID,93.0189,VALID,0.0815089,VALID,25.4344,VALID,326,VALID,0.1875,
2011-12-26, 00:33:04,VALID,1002.26,VALID,0,VALID,92.935,VALID,0,VALID,25.4344,VALID,327,VALID,0.392969,
2011-12-26, 00:34:04,VALID,1002.25,VALID,0,VALID,92.8587,VALID,0,VALID,25.4344,VALID,327,VALID,0.355469,
2011-12-26, 00:35:04,VALID,1002.2,VALID,0,VALID,92.8053,VALID,0.0815089,VALID,25.4344,VALID,327,VALID,0.215625,
2011-12-26, 00:36:04,VALID,1002.18,VALID,0,VALID,92.813,VALID,0.0815089,VALID,25.4344,VALID,327,VALID,0.311328,
2011-12-26, 00:37:04,VALID,1002.17,VALID,0,VALID,92.8511,VALID,0,VALID,25.4344,VALID,331,VALID,0.426172,
2011-12-26, 00:38:04,VALID,1002.12,VALID,0,VALID,92.8816,VALID,0,VALID,25.4149,VALID,352,VALID,0.607031,
2011-12-26, 00:39:04,VALID,1002.11,VALID,0,VALID,92.874,VALID,0,VALID,25.4149,VALID,350,VALID,0.364453,
2011-12-26, 00:40:04,VALID,1002.14,VALID,0,VALID,92.9579,VALID,0.0815089,VALID,25.3955,VALID,350,VALID,0.255859,
2011-12-26, 00:41:04,VALID,1002.09,VALID,0,VALID,92.9274,VALID,0,VALID,25.4149,VALID,349,VALID,0.222266,
2011-12-26, 00:42:04,VALID,1002.08,VALID,0,VALID,92.9198,VALID,0,VALID,25.4149,VALID,349,VALID,0.104297,
2011-12-26, 00:43:04,VALID,1002.11,VALID,0,VALID,93.0266,VALID,0,VALID,25.4149,VALID,308,VALID,0.122656,
2011-12-26, 00:44:04,VALID,1002.09,VALID,0,VALID,93.0647,VALID,0,VALID,25.4539,VALID,308,VALID,0,
2011-12-26, 00:45:04,VALID,1002.07,VALID,0,VALID,93.0037,VALID,0,VALID,25.4539,VALID,308,VALID,0.257031,
2011-12-26, 00:46:04,VALID,1002.06,VALID,0,VALID,92.8969,VALID,0,VALID,25.4539,VALID,316,VALID,0.221875,
2011-12-26, 00:47:04,VALID,1002.05,VALID,0,VALID,92.8358,VALID,0,VALID,25.4539,VALID,322,VALID,0.444141,
2011-12-26, 00:48:04,VALID,1002.04,VALID,0,VALID,92.8053,VALID,0,VALID,25.4539,VALID,322,VALID,0.389062,
2011-12-26, 00:49:04,VALID,1002.01,VALID,0,VALID,92.8511,VALID,0,VALID,25.4325,VALID,322,VALID,0.254297,
2011-12-26, 00:50:04,VALID,1002.01,VALID,0,VALID,92.9121,VALID,0,VALID,25.4539,VALID,322,VALID,0.228906,
2011-12-26, 00:51:04,VALID,1002,VALID,0,VALID,93.0495,VALID,0.0815089,VALID,25.452,VALID,322,VALID,0.21875,
2011-12-26, 00:52:04,VALID,1002,VALID,0,VALID,92.9808,VALID,0.0815089,VALID,25.452,VALID,339,VALID,0.384375,
2011-12-26, 00:53:04,VALID,1002.01,VALID,0,VALID,93.0266,VALID,0,VALID,25.4539,VALID,339,VALID,0.171875,
2011-12-26, 00:54:04,VALID,1002.05,VALID,0,VALID,92.9961,VALID,0,VALID,25.4344,VALID,333,VALID,0.276953,
2011-12-26, 00:55:04,VALID,1002.03,VALID,0,VALID,93.0189,VALID,0,VALID,25.4539,VALID,323,VALID,0.406641,
2011-12-26, 00:56:04,VALID,1002.02,VALID,0,VALID,93.0189,VALID,0,VALID,25.4539,VALID,323,VALID,0.392578,
2011-12-26, 00:57:04,VALID,1002.04,VALID,0,VALID,93.2402,VALID,0,VALID,25.4928,VALID,323,VALID,0.0160156,
2011-12-26, 00:58:04,VALID,1002.04,VALID,0,VALID,93.1715,VALID,0,VALID,25.4928,VALID,329,VALID,0.255859,
2011-12-26, 00:59:04,VALID,1002.04,VALID,0,VALID,93.1868,VALID,0.0815089,VALID,25.5104,VALID,314,VALID,0.548437,
2011-12-26, 01:00:04,VALID,1002.04,VALID,0,VALID,93.1791,VALID,0,VALID,25.4928,VALID,314,VALID,0.276953,
2011-12-26, 01:01:04,VALID,1002.02,VALID,0,VALID,93.1563,VALID,0,VALID,25.5532,VALID,314,VALID,0.292188,
2011-12-26, 01:02:04,VALID,1002.04,VALID,0,VALID,92.935,VALID,0,VALID,25.5513,VALID,289,VALID,0.691406,
2011-12-26, 01:03:04,VALID,1002.02,VALID,0,VALID,92.9579,VALID,0,VALID,25.5298,VALID,278,VALID,0.116797,
2011-12-26, 01:04:04,VALID,1002.05,VALID,0,VALID,92.8969,VALID,0,VALID,25.5921,VALID,278,VALID,0.0675781,
2011-12-26, 01:05:04,VALID,1002.04,VALID,0,VALID,92.7519,VALID,0.0815089,VALID,25.5707,VALID,296,VALID,0.392188,
2011-12-26, 01:06:04,VALID,1002.07,VALID,0,VALID,92.7443,VALID,0,VALID,25.5902,VALID,303,VALID,0,
2011-12-26, 01:07:04,VALID,1002.11,VALID,0,VALID,92.8816,VALID,0,VALID,25.6292,VALID,303,VALID,0.0371094,
2011-12-26, 01:08:04,VALID,1002.11,VALID,0,VALID,92.6604,VALID,0.0815089,VALID,25.6506,VALID,312,VALID,0.0859375,
2011-12-26, 01:09:04,VALID,1002.12,VALID,0,VALID,92.3095,VALID,0,VALID,25.6097,VALID,334,VALID,0.894141,
2011-12-26, 01:10:04,VALID,1002.11,VALID,0,VALID,92.401,VALID,0.0815089,VALID,25.6097,VALID,11,VALID,0.346484,
2011-12-26, 01:11:04,VALID,1002.11,VALID,0,VALID,92.4849,VALID,0,VALID,25.6292,VALID,11,VALID,0,
2011-12-26, 01:12:04,VALID,1002.08,VALID,0,VALID,92.5383,VALID,0,VALID,25.6506,VALID,10,VALID,0.0109375,
2011-12-26, 01:13:04,VALID,1002.07,VALID,0,VALID,92.4163,VALID,0,VALID,25.6292,VALID,354,VALID,0.753516,
2011-12-26, 01:14:04,VALID,1002.05,VALID,0,VALID,92.2332,VALID,0,VALID,25.6486,VALID,346,VALID,1.00547,
2011-12-26, 01:15:04,VALID,1002.06,VALID,0,VALID,92.1874,VALID,0,VALID,25.67,VALID,345,VALID,0.666797,
2011-12-26, 01:16:04,VALID,1002.07,VALID,0,VALID,92.2866,VALID,0,VALID,25.6292,VALID,342,VALID,0.526953,
2011-12-26, 01:17:04,VALID,1002.08,VALID,0,VALID,92.3476,VALID,0,VALID,25.6486,VALID,347,VALID,0.269141,
2011-12-26, 01:18:04,VALID,1002.06,VALID,0,VALID,92.3629,VALID,0,VALID,25.6486,VALID,348,VALID,0.436719,
2011-12-26, 01:19:04,VALID,1002.04,VALID,0,VALID,92.1492,VALID,0,VALID,25.6292,VALID,345,VALID,0.817187,
2011-12-26, 01:20:04,VALID,1002.04,VALID,0,VALID,92.3018,VALID,0,VALID,25.6292,VALID,350,VALID,0.472266,
2011-12-26, 01:21:04,VALID,1002.03,VALID,0,VALID,92.3781,VALID,0,VALID,25.6506,VALID,337,VALID,0.651953,
2011-12-26, 01:22:04,VALID,1002,VALID,0,VALID,92.2103,VALID,0,VALID,25.6506,VALID,354,VALID,0.851172,
2011-12-26, 01:23:04,VALID,1002,VALID,0,VALID,92.1492,VALID,0,VALID,25.6292,VALID,1,VALID,0.885547,
2011-12-26, 01:24:04,VALID,1001.96,VALID,0,VALID,91.928,VALID,0,VALID,25.6292,VALID,351,VALID,1.10352,
2011-12-26, 01:25:04,VALID,1001.93,VALID,0,VALID,92.1264,VALID,0,VALID,25.67,VALID,324,VALID,0.164063,
2011-12-26, 01:26:04,VALID,1001.91,VALID,0,VALID,92.0119,VALID,0,VALID,25.6486,VALID,319,VALID,0.653516,
2011-12-26, 01:27:04,VALID,1001.91,VALID,0,VALID,92.0653,VALID,0,VALID,25.6895,VALID,283,VALID,0.266406,
2011-12-26, 01:28:04,VALID,1001.87,VALID,0,VALID,92.0119,VALID,0,VALID,25.709,VALID,255,VALID,0.257813,
2011-12-26, 01:29:04,VALID,1001.88,VALID,0,VALID,91.867,VALID,0,VALID,25.709,VALID,347,VALID,0.744922,
2011-12-26, 01:30:04,VALID,1001.89,VALID,0,VALID,91.7449,VALID,0,VALID,25.6876,VALID,344,VALID,1.08984,
2011-12-26, 01:31:04,VALID,1001.91,VALID,0,VALID,91.8517,VALID,0,VALID,25.6876,VALID,353,VALID,0.725781,
2011-12-26, 01:32:04,VALID,1001.92,VALID,0,VALID,91.7602,VALID,0,VALID,25.7071,VALID,339,VALID,0.928906,
2011-12-26, 01:33:04,VALID,1001.9,VALID,0,VALID,91.7602,VALID,0,VALID,25.7071,VALID,339,VALID,0.328906,
2011-12-26, 01:34:04,VALID,1001.86,VALID,0,VALID,91.8822,VALID,0,VALID,25.7071,VALID,347,VALID,0.128516,
2011-12-26, 01:35:04,VALID,1001.86,VALID,0,VALID,91.9051,VALID,0,VALID,25.7265,VALID,319,VALID,0.04375,
2011-12-26, 01:36:04,VALID,1001.84,VALID,0,VALID,91.9433,VALID,0,VALID,25.748,VALID,341,VALID,0.372266,
2011-12-26, 01:37:04,VALID,1001.84,VALID,0,VALID,91.8517,VALID,0,VALID,25.748,VALID,342,VALID,0.133594,
2011-12-26, 01:38:04,VALID,1001.84,VALID,0,VALID,91.7449,VALID,0,VALID,25.7265,VALID,354,VALID,0.246094,
2011-12-26, 01:39:04,VALID,1001.83,VALID,0,VALID,91.6229,VALID,0,VALID,25.748,VALID,346,VALID,0.762109,
2011-12-26, 01:40:04,VALID,1001.78,VALID,0,VALID,91.6839,VALID,0,VALID,25.7265,VALID,344,VALID,0.620313,
2011-12-26, 01:41:04,VALID,1001.78,VALID,0,VALID,91.4474,VALID,0,VALID,25.709,VALID,353,VALID,0.930859,
2011-12-26, 01:42:04,VALID,1001.74,VALID,0,VALID,91.3787,VALID,0,VALID,25.6876,VALID,346,VALID,0.895312,
2011-12-26, 01:43:04,VALID,1001.68,VALID,0,VALID,91.4016,VALID,0,VALID,25.6895,VALID,342,VALID,0.528906,
2011-12-26, 01:44:04,VALID,1001.65,VALID,0,VALID,91.4092,VALID,0,VALID,25.709,VALID,349,VALID,0.580469,
2011-12-26, 01:45:04,VALID,1001.61,VALID,0,VALID,91.4016,VALID,0,VALID,25.6895,VALID,349,VALID,0.971094,
2011-12-26, 01:46:04,VALID,1001.56,VALID,0,VALID,91.2643,VALID,0,VALID,25.6915,VALID,351,VALID,1.19297,
2011-12-26, 01:47:04,VALID,1001.56,VALID,0,VALID,91.249,VALID,0,VALID,25.67,VALID,340,VALID,0.342969,
2011-12-26, 01:48:04,VALID,1001.5,VALID,0,VALID,91.1499,VALID,0,VALID,25.67,VALID,340,VALID,0.616797,
2011-12-26, 01:49:04,VALID,1001.5,VALID,0,VALID,91.2109,VALID,0,VALID,25.67,VALID,330,VALID,0.476953,
2011-12-26, 01:50:04,VALID,1001.49,VALID,0,VALID,91.0659,VALID,0,VALID,25.67,VALID,348,VALID,0.796875,
2011-12-26, 01:51:04,VALID,1001.48,VALID,0,VALID,91.0583,VALID,0,VALID,25.6486,VALID,347,VALID,0.580078,
2011-12-26, 01:52:04,VALID,1001.48,VALID,0,VALID,91.3406,VALID,0,VALID,25.67,VALID,347,VALID,0.372656,
2011-12-26, 01:53:04,VALID,1001.46,VALID,0,VALID,90.9897,VALID,0,VALID,25.6506,VALID,339,VALID,0.508594,
2011-12-26, 01:54:04,VALID,1001.47,VALID,0,VALID,91.1956,VALID,0,VALID,25.6097,VALID,349,VALID,0.447266,
2011-12-26, 01:55:04,VALID,1001.43,VALID,0,VALID,91.1728,VALID,0,VALID,25.6116,VALID,349,VALID,0.767578,
2011-12-26, 01:56:04,VALID,1001.45,VALID,0,VALID,91.249,VALID,0,VALID,25.6116,VALID,350,VALID,0.506641,
2011-12-26, 01:57:04,VALID,1001.44,VALID,0,VALID,91.2262,VALID,0,VALID,25.6116,VALID,348,VALID,0.744922,
2011-12-26, 01:58:04,VALID,1001.42,VALID,0,VALID,91.2338,VALID,0,VALID,25.5727,VALID,347,VALID,0.741016,
2011-12-26, 01:59:04,VALID,1001.42,VALID,0,VALID,91.2033,VALID,0,VALID,25.5727,VALID,345,VALID,0.792578,
2011-12-26, 02:00:04,VALID,1001.42,VALID,0,VALID,91.4245,VALID,0,VALID,25.5727,VALID,342,VALID,0.075,
2011-12-26, 02:01:04,VALID,1001.37,VALID,0,VALID,91.2262,VALID,0,VALID,25.5123,VALID,338,VALID,0.408984,
2011-12-26, 02:02:04,VALID,1001.38,VALID,0,VALID,91.2109,VALID,0,VALID,25.5337,VALID,341,VALID,0.578125,
2011-12-26, 02:03:04,VALID,1001.31,VALID,0,VALID,91.188,VALID,0,VALID,25.5142,VALID,343,VALID,0.5875,
2011-12-26, 02:04:04,VALID,1001.3,VALID,0,VALID,90.982,VALID,0,VALID,25.5123,VALID,357,VALID,0.830859,
2011-12-26, 02:05:04,VALID,1001.29,VALID,0,VALID,90.8905,VALID,0,VALID,25.5142,VALID,352,VALID,0.885156,
2011-12-26, 02:06:04,VALID,1001.26,VALID,0,VALID,90.6311,VALID,0,VALID,25.5142,VALID,337,VALID,1.0082,
2011-12-26, 02:07:04,VALID,1001.25,VALID,0,VALID,90.8295,VALID,0,VALID,25.4928,VALID,342,VALID,0.103906,
2011-12-26, 02:08:04,VALID,1001.22,VALID,0,VALID,90.9897,VALID,0,VALID,25.5123,VALID,300,VALID,0.713281,
2011-12-26, 02:09:04,VALID,1001.21,VALID,0,VALID,91.0736,VALID,0,VALID,25.5123,VALID,286,VALID,0.634375,
2011-12-26, 02:10:04,VALID,1001.27,VALID,0,VALID,91.127,VALID,0,VALID,25.5337,VALID,293,VALID,0.232031,
2011-12-26, 02:11:04,VALID,1001.27,VALID,0,VALID,90.8142,VALID,0,VALID,25.4948,VALID,340,VALID,0.425,
2011-12-26, 02:12:04,VALID,1001.32,VALID,0,VALID,90.8523,VALID,0,VALID,25.4539,VALID,342,VALID,0.592188,
2011-12-26, 02:13:04,VALID,1001.3,VALID,0,VALID,90.9439,VALID,0,VALID,25.4363,VALID,341,VALID,0.208594,
2011-12-26, 02:14:04,VALID,1001.29,VALID,0,VALID,90.9897,VALID,0,VALID,25.3955,VALID,348,VALID,0.698438,
2011-12-26, 02:15:04,VALID,1001.27,VALID,0,VALID,90.9439,VALID,0,VALID,25.376,VALID,351,VALID,0.68125,
2011-12-26, 02:16:04,VALID,1001.25,VALID,0,VALID,91.0202,VALID,0,VALID,25.3584,VALID,343,VALID,1.1168,
2011-12-26, 02:17:04,VALID,1001.22,VALID,0,VALID,91.2185,VALID,0,VALID,25.3584,VALID,349,VALID,0.759766,
2011-12-26, 02:18:04,VALID,1001.23,VALID,0,VALID,91.2948,VALID,0,VALID,25.339,VALID,342,VALID,0.760547,
2011-12-26, 02:19:04,VALID,1001.17,VALID,0,VALID,91.1499,VALID,0,VALID,25.2981,VALID,347,VALID,1.29141,
2011-12-26, 02:20:04,VALID,1001.19,VALID,0,VALID,91.249,VALID,0,VALID,25.2981,VALID,338,VALID,0.954297,
2011-12-26, 02:21:04,VALID,1001.17,VALID,0,VALID,91.3482,VALID,0,VALID,25.339,VALID,358,VALID,0.89375,
2011-12-26, 02:22:04,VALID,1001.17,VALID,0,VALID,91.3101,VALID,0,VALID,25.3176,VALID,318,VALID,0.446094,
2011-12-26, 02:23:04,VALID,1001.2,VALID,0,VALID,91.3635,VALID,0,VALID,25.3,VALID,343,VALID,0.710547,
2011-12-26, 02:24:04,VALID,1001.21,VALID,0,VALID,91.3024,VALID,0,VALID,25.3,VALID,345,VALID,1.12148,
2011-12-26, 02:25:04,VALID,1001.2,VALID,0,VALID,91.3406,VALID,0,VALID,25.3,VALID,346,VALID,1.03398,
2011-12-26, 02:26:04,VALID,1001.24,VALID,0,VALID,91.2643,VALID,0,VALID,25.2806,VALID,354,VALID,1.06406,
2011-12-26, 02:27:04,VALID,1001.25,VALID,0,VALID,91.4474,VALID,0,VALID,25.2592,VALID,2,VALID,0.979297,
2011-12-26, 02:28:04,VALID,1001.28,VALID,0,VALID,91.4169,VALID,0,VALID,25.2611,VALID,352,VALID,0.981641,
2011-12-26, 02:29:04,VALID,1001.32,VALID,0,VALID,91.4398,VALID,0,VALID,25.2592,VALID,349,VALID,0.583984,
2011-12-26, 02:30:04,VALID,1001.38,VALID,0,VALID,91.4398,VALID,0,VALID,25.2416,VALID,353,VALID,0.908203,
2011-12-26, 02:31:04,VALID,1001.4,VALID,0,VALID,91.4779,VALID,0,VALID,25.2416,VALID,354,VALID,0.872656,
2011-12-26, 02:32:04,VALID,1001.42,VALID,0,VALID,91.2033,VALID,0,VALID,25.2202,VALID,348,VALID,1.16797,
2011-12-26, 02:33:04,VALID,1001.43,VALID,0,VALID,91.0965,VALID,0,VALID,25.2202,VALID,348,VALID,1.11133,
2011-12-26, 02:34:04,VALID,1001.49,VALID,0,VALID,91.2338,VALID,0,VALID,25.2611,VALID,352,VALID,0.948047,
2011-12-26, 02:35:04,VALID,1001.47,VALID,0,VALID,91.0736,VALID,0,VALID,25.2806,VALID,344,VALID,1.12383,
2011-12-26, 02:36:04,VALID,1001.47,VALID,0,VALID,91.0354,VALID,0,VALID,25.2806,VALID,349,VALID,0.859375,
2011-12-26, 02:37:04,VALID,1001.5,VALID,0,VALID,91.127,VALID,0,VALID,25.2786,VALID,349,VALID,0.0917969,
2011-12-26, 02:38:04,VALID,1001.48,VALID,0,VALID,91.1651,VALID,0,VALID,25.3195,VALID,349,VALID,0,
2011-12-26, 02:39:04,VALID,1001.48,VALID,0,VALID,91.2643,VALID,0,VALID,25.339,VALID,349,VALID,0.00195313,
2011-12-26, 02:40:04,VALID,1001.46,VALID,0,VALID,91.2033,VALID,0,VALID,25.339,VALID,349,VALID,0.341797,
2011-12-26, 02:41:04,VALID,1001.44,VALID,0,VALID,91.2719,VALID,0.0815089,VALID,25.339,VALID,349,VALID,0.395703,
2011-12-26, 02:42:04,VALID,1001.39,VALID,0,VALID,91.1346,VALID,0,VALID,25.339,VALID,349,VALID,0.478516,
2011-12-26, 02:43:04,VALID,1001.38,VALID,0,VALID,91.2338,VALID,0,VALID,25.3176,VALID,349,VALID,0.00195313,
2011-12-26, 02:44:04,VALID,1001.38,VALID,0,VALID,91.3177,VALID,0,VALID,25.339,VALID,349,VALID,0,
2011-12-26, 02:45:04,VALID,1001.35,VALID,0,VALID,91.3253,VALID,0,VALID,25.339,VALID,349,VALID,0.5,
2011-12-26, 02:46:04,VALID,1001.33,VALID,0,VALID,91.5313,VALID,0,VALID,25.339,VALID,333,VALID,0.549609,
2011-12-26, 02:47:04,VALID,1001.36,VALID,0,VALID,91.7068,VALID,0,VALID,25.3176,VALID,329,VALID,0.0726563,
2011-12-26, 02:48:04,VALID,1001.32,VALID,0,VALID,91.7297,VALID,0,VALID,25.3584,VALID,329,VALID,0.0394531,
2011-12-26, 02:49:04,VALID,1001.32,VALID,0,VALID,91.8594,VALID,0,VALID,25.3584,VALID,329,VALID,0,
2011-12-26, 02:50:04,VALID,1001.34,VALID,0,VALID,91.8212,VALID,0,VALID,25.337,VALID,329,VALID,0.0257812,
2011-12-26, 02:51:04,VALID,1001.37,VALID,0,VALID,91.5542,VALID,0,VALID,25.337,VALID,298,VALID,0.601563,
2011-12-26, 02:52:04,VALID,1001.37,VALID,0,VALID,91.4932,VALID,0,VALID,25.3584,VALID,279,VALID,0.924219,
2011-12-26, 02:53:04,VALID,1001.39,VALID,0,VALID,91.6229,VALID,0,VALID,25.376,VALID,265,VALID,0.767969,
2011-12-26, 02:54:04,VALID,1001.4,VALID,0,VALID,91.6839,VALID,0,VALID,25.3935,VALID,267,VALID,0.341797,
2011-12-26, 02:55:04,VALID,1001.41,VALID,0,VALID,91.1651,VALID,0,VALID,25.3935,VALID,288,VALID,0.892969,
2011-12-26, 02:56:04,VALID,1001.4,VALID,0,VALID,91.127,VALID,0,VALID,25.4169,VALID,290,VALID,0.327734,
2011-12-26, 02:57:04,VALID,1001.39,VALID,0,VALID,91.2414,VALID,0,VALID,25.4558,VALID,286,VALID,0.3,
2011-12-26, 02:58:04,VALID,1001.4,VALID,0,VALID,91.3864,VALID,0.0815089,VALID,25.4539,VALID,287,VALID,0.316016,
2011-12-26, 02:59:04,VALID,1001.37,VALID,0,VALID,91.3482,VALID,0,VALID,25.4558,VALID,340,VALID,0.747266,
2011-12-26, 03:00:04,VALID,1001.33,VALID,0,VALID,91.3558,VALID,0,VALID,25.4344,VALID,343,VALID,0.292578,
2011-12-26, 03:01:04,VALID,1001.27,VALID,0,VALID,91.4626,VALID,0,VALID,25.4344,VALID,343,VALID,0.0257812,
2011-12-26, 03:02:04,VALID,1001.23,VALID,0,VALID,91.4474,VALID,0,VALID,25.4149,VALID,343,VALID,0.395703,
2011-12-26, 03:03:04,VALID,1001.24,VALID,0,VALID,91.5084,VALID,0.0815089,VALID,25.4149,VALID,343,VALID,0.503906,
2011-12-26, 03:04:04,VALID,1001.2,VALID,0,VALID,91.4703,VALID,0,VALID,25.3955,VALID,348,VALID,0.436719,
2011-12-26, 03:05:04,VALID,1001.26,VALID,0,VALID,91.5771,VALID,0.0815089,VALID,25.376,VALID,349,VALID,0.424609,
2011-12-26, 03:06:04,VALID,1001.27,VALID,0,VALID,91.6763,VALID,0,VALID,25.376,VALID,349,VALID,0.197656,
2011-12-26, 03:07:04,VALID,1001.28,VALID,0,VALID,91.8365,VALID,0,VALID,25.376,VALID,349,VALID,0.148828,
2011-12-26, 03:08:04,VALID,1001.28,VALID,0,VALID,91.7602,VALID,0.0815089,VALID,25.3565,VALID,349,VALID,0.456641,
2011-12-26, 03:09:04,VALID,1001.3,VALID,0,VALID,91.7754,VALID,0,VALID,25.3584,VALID,349,VALID,0.182031,
2011-12-26, 03:10:04,VALID,1001.3,VALID,0,VALID,91.8059,VALID,0,VALID,25.3176,VALID,349,VALID,0,
2011-12-26, 03:11:04,VALID,1001.29,VALID,0,VALID,91.9814,VALID,0,VALID,25.339,VALID,349,VALID,0,
2011-12-26, 03:12:04,VALID,1001.28,VALID,0,VALID,91.9128,VALID,0,VALID,25.3176,VALID,349,VALID,0.244531,
2011-12-26, 03:13:04,VALID,1001.25,VALID,0,VALID,91.8975,VALID,0,VALID,25.2981,VALID,349,VALID,0.146875,
2011-12-26, 03:14:04,VALID,1001.25,VALID,0,VALID,92.1187,VALID,0,VALID,25.2981,VALID,349,VALID,0.0628906,
2011-12-26, 03:15:04,VALID,1001.23,VALID,0,VALID,92.1264,VALID,0,VALID,25.337,VALID,349,VALID,0,
2011-12-26, 03:16:04,VALID,1001.24,VALID,0,VALID,92.3018,VALID,0.0815089,VALID,25.3176,VALID,349,VALID,0,
2011-12-26, 03:17:04,VALID,1001.27,VALID,0,VALID,92.4086,VALID,0.0815089,VALID,25.337,VALID,349,VALID,0.0210938,
2011-12-26, 03:18:04,VALID,1001.26,VALID,0,VALID,92.3171,VALID,0,VALID,25.337,VALID,349,VALID,0.149219,
2011-12-26, 03:19:04,VALID,1001.26,VALID,0,VALID,92.34,VALID,0,VALID,25.337,VALID,349,VALID,0,
2011-12-26, 03:20:04,VALID,1001.3,VALID,0,VALID,92.2866,VALID,0.0815089,VALID,25.337,VALID,349,VALID,0,
2011-12-26, 03:21:04,VALID,1001.31,VALID,0,VALID,92.2713,VALID,0.0815089,VALID,25.337,VALID,349,VALID,0,
2011-12-26, 03:22:04,VALID,1001.31,VALID,0,VALID,92.3095,VALID,0,VALID,25.337,VALID,349,VALID,0,
2011-12-26, 03:23:04,VALID,1001.32,VALID,0,VALID,92.2484,VALID,0,VALID,25.337,VALID,349,VALID,0,
2011-12-26, 03:24:04,VALID,1001.31,VALID,0,VALID,92.2561,VALID,0.0815089,VALID,25.3584,VALID,349,VALID,0,
2011-12-26, 03:25:04,VALID,1001.35,VALID,0,VALID,92.2332,VALID,0,VALID,25.339,VALID,349,VALID,0,
2011-12-26, 03:26:04,VALID,1001.32,VALID,0,VALID,92.3018,VALID,0,VALID,25.339,VALID,349,VALID,0,
2011-12-26, 03:27:04,VALID,1001.35,VALID,0,VALID,92.2789,VALID,0,VALID,25.3176,VALID,349,VALID,0,
2011-12-26, 03:28:04,VALID,1001.37,VALID,0,VALID,92.3018,VALID,0,VALID,25.2981,VALID,349,VALID,0,
2011-12-26, 03:29:04,VALID,1001.38,VALID,0,VALID,92.3171,VALID,0,VALID,25.2981,VALID,349,VALID,0,
2011-12-26, 03:30:04,VALID,1001.41,VALID,0,VALID,92.3552,VALID,0,VALID,25.2981,VALID,349,VALID,0,
2011-12-26, 03:31:04,VALID,1001.4,VALID,0,VALID,92.4086,VALID,0,VALID,25.2981,VALID,349,VALID,0,
2011-12-26, 03:32:04,VALID,1001.46,VALID,0,VALID,92.5383,VALID,0,VALID,25.2786,VALID,349,VALID,0,
2011-12-26, 03:33:04,VALID,1001.41,VALID,0,VALID,92.5688,VALID,0,VALID,25.2806,VALID,349,VALID,0,
2011-12-26, 03:34:04,VALID,1001.39,VALID,0,VALID,92.6756,VALID,0.0815089,VALID,25.2611,VALID,349,VALID,0,
2011-12-26, 03:35:04,VALID,1001.39,VALID,0,VALID,92.7748,VALID,0.0815089,VALID,25.2183,VALID,349,VALID,0,
2011-12-26, 03:36:04,VALID,1001.37,VALID,0,VALID,92.813,VALID,0,VALID,25.2397,VALID,299,VALID,0.793359,
2011-12-26, 03:37:04,VALID,1001.38,VALID,0,VALID,92.8816,VALID,0,VALID,25.2806,VALID,296,VALID,0.0945313,
2011-12-26, 03:38:04,VALID,1001.39,VALID,0,VALID,92.8969,VALID,0,VALID,25.2786,VALID,295,VALID,0.199219,
2011-12-26, 03:39:04,VALID,1001.39,VALID,0,VALID,92.7824,VALID,0,VALID,25.2786,VALID,295,VALID,0.281641,
2011-12-26, 03:40:04,VALID,1001.42,VALID,0,VALID,92.5536,VALID,0.0815089,VALID,25.2786,VALID,290,VALID,0.824609,
2011-12-26, 03:41:04,VALID,1001.45,VALID,0,VALID,92.5231,VALID,0,VALID,25.2981,VALID,313,VALID,0.248828,
2011-12-26, 03:42:04,VALID,1001.42,VALID,0,VALID,92.5154,VALID,0,VALID,25.339,VALID,264,VALID,0.328125,
2011-12-26, 03:43:04,VALID,1001.47,VALID,0,VALID,92.3705,VALID,0.0815089,VALID,25.339,VALID,343,VALID,0.410156,
2011-12-26, 03:44:04,VALID,1001.51,VALID,0,VALID,92.34,VALID,0,VALID,25.337,VALID,350,VALID,0.447266,